{"data":{"norad_id":66464,"intl_designator":"2025-262J","name":"STARLINK-35435","alt_names":[],"object_type":"PAYLOAD","status":"ACTIVE","operator":null,"country":"US","launch_date":"2025-11-15","launch_site_code":"AFETR","launch_vehicle":null,"mission":null,"orbit_class":"UNKNOWN","rcs_meters":null,"size_class":null,"mass_kg":null,"dimensions":null,"purposes":["comms"],"wikipedia_slug":null,"has_3d_model":false,"image_url":null,"decayed_at":null,"tle_current":{"epoch":"2026-05-24T22:43:00.083136Z","epoch_age_seconds":76355,"freshness":"FRESH","line1":"1 66464U 25262J   26144.94652874  .00013865  00000+0  51208-3 0  9996","line2":"2 66464  43.0006 225.0975 0001212 265.8760  94.1953 15.27602535 30573","mean_motion":15.27602535,"eccentricity":0.0001212,"inclination_deg":43.0006,"raan_deg":225.0975,"arg_perigee_deg":265.876,"mean_anomaly_deg":94.1953,"bstar":0.00051208,"rev_number":3057,"period_min":94.26535810246,"perigee_km":482.15005139563,"apogee_km":483.81318654887,"semimajor_km":6861.1186189723,"source":"CELESTRAK","updated_at":"2026-05-25T13:38:21.215502Z"}}}